Location: El Bakhil
(32.7726°N, 5.5387°W)
Time: 06:58:09
(UTC+00:00)

N. Korean satellite - Pass Details

Date: 09 December 2021
Orbit: 447 x 491 km, 97.3° (Epoch: 22 January)

Event Time Altitude Azimuth Distance (km) Brightness Sun altitude
Rises 05:36:05 0° 9° (N) 2,451 10.1 -19.8°
Reaches altitude 10° 05:38:07 10° 7° (N) 1,576 9.1 -19.4°
Maximum altitude 05:41:29 75° 282° (WNW) 469 6.2 -18.7°
Drops below altitude 10° 05:44:50 10° 197° (SSW) 1,575 9.1 -18.1°
Sets 05:46:52 0° 196° (SSW) 2,449 10.2 -17.7°
